When you browse on this site, cookies collect data to enhance your experience and personalize the content and advertising you see.
Visit our Privacy Policy to learn more. By continuing to use the site, you agree to this use of cookies and data.
  • In Switzerland
  • List of Countries
  • For 7 days
  • Water Temperature
  • Satellite Maps
  • Weather Map
  • Weather Widgets
  • user-avatar
    Login

    Hourly Weather Kurytyba

    Today, 24 January, Thursday

    Time Temperature Precipitation Wind Pressure Humidity
    00:00 +22°C° 0 mm 1 mps 682 mmHg 93%
    01:00 +22°C° 0 mm 1 mps 682 mmHg 94%
    02:00 +22°C° 0 mm 1 mps 682 mmHg 95%
    03:00 +22°C° 0 mm 1 mps 682 mmHg 95%
    04:00 +21°C° 0 mm 1 mps 682 mmHg 96%
    05:00 +21°C° 0 mm 1 mps 682 mmHg 96%
    06:00 +21°C° 0 mm 1 mps 682 mmHg 96%
    07:00 +22°C° 0 mm 1 mps 683 mmHg 87%
    08:00 +24°C° 0 mm 1 mps 684 mmHg 78%
    09:00 +26°C° 0 mm 1 mps 684 mmHg 69%
    10:00 +27°C° 0 mm 1 mps 684 mmHg 61%
    11:00 +29°C° 0 mm 1 mps 685 mmHg 52%
    12:00 +31°C° 0 mm 2 mps 685 mmHg 43%
    13:00 +31°C° 0.1 mm 2 mps 684 mmHg 45%
    14:00 +31°C° 0.1 mm 2 mps 684 mmHg 46%
    15:00 +31°C° 0.1 mm 2 mps 683 mmHg 48%
    16:00 +29°C° 1.7 mm 2 mps 683 mmHg 61%
    17:00 +27°C° 1.7 mm 2 mps 682 mmHg 73%
    18:00 +24°C° 1.7 mm 3 mps 682 mmHg 86%
    19:00 +22°C° 0.6 mm 3 mps 682 mmHg 88%
    20:00 +22°C° 0.6 mm 3 mps 682 mmHg 90%
    21:00 +21°C° 0.6 mm 3 mps 683 mmHg 93%
    22:00 +21°C° 0 mm 2 mps 683 mmHg 93%
    23:00 +20°C° 0 mm 2 mps 683 mmHg 93%

    Tomorrow, 25 January, Friday

    Time Temperature Precipitation Wind Pressure Humidity
    00:00 +20°C° 0 mm 2 mps 683 mmHg 94%
    01:00 +20°C° 0 mm 2 mps 683 mmHg 93%
    02:00 +20°C° 0 mm 2 mps 683 mmHg 93%
    03:00 +21°C° 0 mm 1 mps 682 mmHg 92%
    04:00 +20°C° 0 mm 1 mps 682 mmHg 93%
    05:00 +20°C° 0 mm 1 mps 682 mmHg 93%
    06:00 +19°C° 0 mm 1 mps 682 mmHg 94%
    07:00 +21°C° 0 mm 1 mps 683 mmHg 83%
    08:00 +23°C° 0 mm 1 mps 684 mmHg 73%
    09:00 +25°C° 0 mm 1 mps 684 mmHg 62%
    10:00 +27°C° 0 mm 2 mps 684 mmHg 54%
    11:00 +29°C° 0 mm 2 mps 684 mmHg 46%
    12:00 +30°C° 0 mm 2 mps 685 mmHg 38%
    13:00 +30°C° 0 mm 2 mps 684 mmHg 40%
    14:00 +31°C° 0 mm 2 mps 684 mmHg 42%
    15:00 +31°C° 0 mm 3 mps 683 mmHg 44%
    16:00 +29°C° 0.2 mm 3 mps 683 mmHg 53%
    17:00 +27°C° 0.2 mm 3 mps 682 mmHg 63%
    18:00 +26°C° 0.2 mm 3 mps 682 mmHg 72%
    19:00 +24°C° 0.2 mm 2 mps 682 mmHg 79%
    20:00 +21°C° 0.2 mm 2 mps 682 mmHg 86%
    21:00 +20°C° 0.2 mm 2 mps 683 mmHg 92%
    22:00 +20°C° 0 mm 1 mps 683 mmHg 92%
    23:00 +19°C° 0 mm 1 mps 683 mmHg 92%

    Day after tomorrow, 26 January, Saturday

    Time Temperature Precipitation Wind Pressure Humidity
    00:00 +18°C° 0 mm 1 mps 683 mmHg 92%
    01:00 +18°C° 0 mm 1 mps 682 mmHg 91%
    02:00 +18°C° 0 mm 1 mps 682 mmHg 90%
    03:00 +16°C° 0 mm 1 mps 681 mmHg 90%
    04:00 +16°C° 0 mm 1 mps 681 mmHg 91%
    05:00 +16°C° 0 mm 1 mps 681 mmHg 93%
    06:00 +16°C° 0 mm 1 mps 681 mmHg 95%
    07:00 +20°C° 0 mm 1 mps 682 mmHg 85%
    08:00 +22°C° 0 mm 1 mps 683 mmHg 75%
    09:00 +25°C° 0 mm 1 mps 684 mmHg 66%
    10:00 +26°C° 0.1 mm 1 mps 684 mmHg 61%
    11:00 +28°C° 0.1 mm 2 mps 685 mmHg 56%
    12:00 +29°C° 0.1 mm 2 mps 685 mmHg 52%
    13:00 +29°C° 0.2 mm 2 mps 684 mmHg 52%
    14:00 +29°C° 0.2 mm 2 mps 683 mmHg 52%
    15:00 +29°C° 0.2 mm 3 mps 683 mmHg 53%
    16:00 +28°C° 0 mm 3 mps 683 mmHg 58%
    17:00 +27°C° 0 mm 3 mps 682 mmHg 64%
    18:00 +25°C° 0 mm 3 mps 682 mmHg 69%
    19:00 +24°C° 0 mm 3 mps 682 mmHg 76%
    20:00 +21°C° 0 mm 2 mps 683 mmHg 83%
    21:00 +20°C° 0 mm 2 mps 683 mmHg 90%
    22:00 +19°C° 0 mm 2 mps 683 mmHg 91%
    23:00 +20°C° 0 mm 1 mps 683 mmHg 93%

    27 January, Sunday

    Time Temperature Precipitation Wind Pressure Humidity
    00:00 +19°C° 0 mm 1 mps 683 mmHg 94%
    01:00 +19°C° 0 mm 1 mps 683 mmHg 95%
    02:00 +19°C° 0 mm 1 mps 682 mmHg 96%
    03:00 +18°C° 0 mm 1 mps 682 mmHg 96%
    04:00 +19°C° 0 mm 1 mps 682 mmHg 96%
    05:00 +19°C° 0 mm 1 mps 682 mmHg 96%
    06:00 +19°C° 0 mm 1 mps 682 mmHg 96%
    07:00 +20°C° 0 mm 1 mps 683 mmHg 89%
    08:00 +22°C° 0 mm 1 mps 683 mmHg 82%
    09:00 +23°C° 0 mm 1 mps 684 mmHg 75%
    10:00 +25°C° 0.1 mm 2 mps 684 mmHg 68%
    11:00 +26°C° 0.1 mm 2 mps 684 mmHg 62%
    12:00 +28°C° 0.1 mm 2 mps 685 mmHg 55%
    13:00 +27°C° 0.9 mm 2 mps 684 mmHg 62%
    14:00 +27°C° 0.9 mm 2 mps 683 mmHg 69%
    15:00 +26°C° 0.9 mm 2 mps 683 mmHg 76%
    16:00 +26°C° 0.9 mm 2 mps 683 mmHg 79%
    17:00 +25°C° 0.9 mm 2 mps 683 mmHg 82%
    18:00 +24°C° 0.9 mm 2 mps 683 mmHg 85%
    19:00 +23°C° 0.1 mm 2 mps 683 mmHg 88%
    20:00 +22°C° 0.1 mm 1 mps 683 mmHg 91%
    21:00 +21°C° 0.1 mm 1 mps 684 mmHg 95%
    22:00 +21°C° 0 mm 1 mps 684 mmHg 95%
    23:00 +20°C° 0 mm 1 mps 684 mmHg 95%

    28 January, Monday

    Time Temperature Precipitation Wind Pressure Humidity
    00:00 +20°C° 0 mm 1 mps 684 mmHg 96%
    01:00 +20°C° 0 mm 1 mps 684 mmHg 96%
    02:00 +19°C° 0 mm 1 mps 683 mmHg 95%
    03:00 +19°C° 0 mm 1 mps 683 mmHg 95%
    04:00 +19°C° 0 mm 1 mps 683 mmHg 95%
    05:00 +19°C° 0 mm 1 mps 683 mmHg 94%
    06:00 +19°C° 0 mm 1 mps 683 mmHg 94%
    07:00 +21°C° 0 mm 1 mps 684 mmHg 84%
    08:00 +23°C° 0 mm 1 mps 685 mmHg 74%
    09:00 +26°C° 0 mm 2 mps 686 mmHg 64%
    10:00 +28°C° 0 mm 2 mps 686 mmHg 56%
    11:00 +29°C° 0 mm 2 mps 686 mmHg 49%
    12:00 +31°C° 0 mm 2 mps 686 mmHg 42%
    13:00 +32°C° 0 mm 2 mps 685 mmHg 40%
    14:00 +32°C° 0 mm 2 mps 685 mmHg 38%
    15:00 +34°C° 0 mm 2 mps 684 mmHg 36%
    16:00 +32°C° 0 mm 2 mps 684 mmHg 42%
    17:00 +30°C° 0 mm 1 mps 684 mmHg 49%
    18:00 +29°C° 0 mm 1 mps 683 mmHg 56%
    19:00 +27°C° 0.1 mm 1 mps 684 mmHg 66%
    20:00 +25°C° 0.1 mm 1 mps 684 mmHg 76%
    21:00 +23°C° 0.1 mm 1 mps 684 mmHg 86%
    22:00 +23°C° 0.1 mm 1 mps 684 mmHg 88%
    23:00 +23°C° 0.1 mm 1 mps 684 mmHg 90%

    29 January, Tuesday

    Time Temperature Precipitation Wind Pressure Humidity
    00:00 +22°C° 0.1 mm 1 mps 685 mmHg 91%
    01:00 +20°C° 0 mm 0 mps 684 mmHg 92%
    02:00 +20°C° 0 mm 0 mps 684 mmHg 93%
    03:00 +19°C° 0 mm 0 mps 683 mmHg 94%
    04:00 +19°C° 0 mm 0 mps 684 mmHg 94%
    05:00 +19°C° 0 mm 0 mps 684 mmHg 94%
    06:00 +18°C° 0 mm 0 mps 684 mmHg 95%
    07:00 +23°C° 0 mm 1 mps 684 mmHg 81%
    08:00 +25°C° 0 mm 1 mps 685 mmHg 67%
    09:00 +28°C° 0 mm 1 mps 686 mmHg 54%
    10:00 +29°C° 0 mm 1 mps 686 mmHg 47%
    11:00 +31°C° 0 mm 1 mps 686 mmHg 41%
    12:00 +34°C° 0 mm 2 mps 686 mmHg 34%
    13:00 +34°C° 0 mm 1 mps 685 mmHg 32%
    14:00 +35°C° 0 mm 1 mps 685 mmHg 30%
    15:00 +35°C° 0 mm 1 mps 684 mmHg 28%
    16:00 +34°C° 0 mm 1 mps 684 mmHg 35%
    17:00 +32°C° 0 mm 1 mps 683 mmHg 43%
    18:00 +30°C° 0 mm 1 mps 683 mmHg 50%
    19:00 +29°C° 0.3 mm 1 mps 683 mmHg 58%
    20:00 +27°C° 0.3 mm 1 mps 683 mmHg 67%
    21:00 +25°C° 0.3 mm 1 mps 684 mmHg 75%
    22:00 +25°C° 0 mm 1 mps 684 mmHg 77%
    23:00 +24°C° 0 mm 1 mps 684 mmHg 80%
    Show more